This demonstration page uses our WeatherBlox Daily Observations layout. Learn more.

Hourly Observations for August 14, 2017

Temp ( °F °C ) Dew Point ( °F °C ) Humidity (%) Winds ( mph kmh ) Pressure ( in mb ) Visibility ( mi km ) Precip ( " mm )
12:15 am 00:15 Partly Cloudy with Light Drizzle 70 21 65 18.3 85 85 S 10 17 29.74 1007 10 16.09344 0 0
12:35 am 00:35 Partly Cloudy with Nearby Thunderstorms 70 21 65 18.4 85 85 SSE 5 7 29.74 1007 10 16.09344 0 0
12:55 am 00:55 Clear 71 21.4 65 18.5 84 84 WSW 10 17 29.71 1006 10 16.09344 0 0
1:15 am 01:15 Clear 71 21.6 65 18.6 83 83 SSW 16 26 29.71 1006 10 16.09344 0 0
1:35 am 01:35 Clear with Nearby Thunderstorms 71 21.5 65 18.6 84 84 SSW 18 30 29.68 1005 10 16.09344 0 0
1:55 am 01:55 Clear with Nearby Thunderstorms 71 21.6 66 18.7 84 84 SW 10 17 29.68 1005 10 16.09344 0 0
2:15 am 02:15 Clear with Nearby Thunderstorms 71 21.8 65 18.4 81 81 SW 17 28 29.68 1005 10 16.09344 0 0
2:35 am 02:35 Clear 71 21.6 63 17 75 75 SW 14 22 29.71 1006 10 16.09344 0 0
2:55 am 02:55 Clear 73 22.6 55 12.5 53 53 SW 9 15 29.71 1006 10 16.09344 0 0
3:15 am 03:15 Mostly Cloudy 70 21.3 61 16.2 73 73 N 17 28 29.8 1009 10 16.09344 0 0
3:35 am 03:35 Partly Cloudy with Nearby Thunderstorms 71 21.7 62 16.5 72 72 N 10 17 29.8 1009 10 16.09344 0 0
3:55 am 03:55 Clear 69 20.6 65 18.2 86 86 N 10 17 29.8 1009 10 16.09344 0 0
4:15 am 04:15 Partly Cloudy 69 20.5 64 18 86 86 N 10 17 29.8 1009 10 16.09344 0 0
4:35 am 04:35 Mostly Cloudy with Light Rain 68 20.2 62 16.7 80 80 NW 7 11 29.83 1010 10 16.09344 0 0
4:55 am 04:55 Cloudy 67 19.3 61 16.1 82 82 Calm 29.8 1009 10 16.09344 0 0
5:15 am 05:15 Cloudy with Rain 67 19.6 59 15.2 76 76 NW 7 11 29.77 1008 10 16.09344 0.02 0.508
5:35 am 05:35 Cloudy with Rain 67 19.2 60 15.6 80 80 NNE 3 6 29.74 1007 7 11.265408 0.06 1.524
5:55 am 05:55 Cloudy 66 18.7 60 15.8 83 83 N 8 13 29.74 1007 10 16.09344 0.07 1.778
6:15 am 06:15 Partly Cloudy 67 19.4 59 15 76 76 SSW 7 11 29.74 1007 10 16.09344 0 0
6:35 am 06:35 Clear 66 19 58 14.6 76 76 SW 8 13 29.74 1007 10 16.09344 0 0
6:55 am 06:55 Sunny 63 17.2 59 14.8 86 86 W 6 9 29.77 1008 10 16.09344 0 0
7:15 am 07:15 Sunny 64 17.5 60 15.4 88 88 WSW 7 11 29.77 1008 10 16.09344 0 0
7:35 am 07:35 Sunny 65 18.3 62 16.5 89 89 WSW 7 11 29.74 1007 10 16.09344 0 0
7:55 am 07:55 Sunny 67 19.2 63 17 87 87 WSW 6 9 29.74 1007 10 16.09344 0 0
8:15 am 08:15 Sunny 67 19.6 64 17.5 88 88 W 6 9 29.74 1007 10 16.09344 0 0
8:35 am 08:35 Sunny 69 20.5 64 17.7 84 84 WSW 7 11 29.74 1007 10 16.09344 0 0
8:55 am 08:55 Partly Cloudy 70 21.1 64 17.8 82 82 ENE 12 19 29.8 1009 10 16.09344 0 0
9:15 am 09:15 Sunny 69 20.8 63 17 79 79 Calm 29.77 1008 10 16.09344 0 0
9:35 am 09:35 Sunny 72 22.2 62 16.5 70 70 NE 9 15 29.74 1007 10 16.09344 0 0
9:55 am 09:55 Sunny 72 22.2 64 17.6 75 75 NE 8 13 29.74 1007 10 16.09344 0 0
10:15 am 10:15 Sunny 73 22.6 65 18.4 77 77 ENE 9 15 29.74 1007 10 16.09344 0 0
10:35 am 10:35 Sunny 74 23.2 65 18.2 74 74 E 9 15 29.74 1007 10 16.09344 0 0
10:55 am 10:55 Sunny 75 23.7 65 18.3 72 72 E 8 13 29.77 1008 10 16.09344 0 0
11:15 am 11:15 Sunny 76 24.2 65 18.2 69 69 E 10 17 29.77 1008 10 16.09344 0 0
11:35 am 11:35 Sunny 76 24.6 65 18.3 68 68 E 10 17 29.77 1008 10 16.09344 0 0
11:55 am 11:55 Sunny 77 25.1 65 18.2 66 66 ESE 10 17 29.77 1008 10 16.09344 0 0
12:15 pm 12:15 Sunny 78 25.3 65 18.1 64 64 E 10 17 29.77 1008 10 16.09344 0 0
12:35 pm 12:35 Sunny 79 25.9 64 17.7 61 61 SE 10 17 29.71 1006 10 16.09344 0 0
12:55 pm 12:55 Sunny 79 26 64 17.6 60 60 SE 9 15 29.71 1006 10 16.09344 0 0
1:15 pm 13:15 Sunny 79 26.2 64 17.8 60 60 E 9 15 29.71 1006 10 16.09344 0 0
1:35 pm 13:35 Sunny 80 26.6 65 18.5 61 61 ESE 9 15 29.71 1006 10 16.09344 0 0
1:55 pm 13:55 Sunny 80 26.9 64 17.9 58 58 SE 8 13 29.71 1006 10 16.09344 0 0
2:15 pm 14:15 Sunny 81 27.1 64 17.9 57 57 E 12 19 29.68 1005 10 16.09344 0 0
2:35 pm 14:35 Sunny 81 27.2 65 18.5 59 59 E 8 13 29.68 1005 10 16.09344 0 0
2:55 pm 14:55 Partly Cloudy 82 27.6 66 18.7 58 58 SSE 7 11 29.68 1005 10 16.09344 0 0
3:15 pm 15:15 Partly Cloudy 82 28 66 18.8 57 57 ESE 10 17 29.68 1005 10 16.09344 0 0
3:35 pm 15:35 Sunny 83 28.1 65 18.6 56 56 ESE 8 13 29.68 1005 10 16.09344 0 0
3:55 pm 15:55 Sunny 83 28.1 65 18.6 56 56 E 8 13 29.68 1005 10 16.09344 0 0
4:15 pm 16:15 Sunny 83 28.5 66 18.9 56 56 E 10 17 29.68 1005 10 16.09344 0 0
4:35 pm 16:35 Sunny 83 28.2 67 19.4 59 59 ESE 14 22 29.65 1004 10 16.09344 0 0
4:55 pm 16:55 Sunny 83 28.3 67 19.3 58 58 E 12 19 29.65 1004 10 16.09344 0 0
5:15 pm 17:15 Sunny 83 28.2 66 18.9 57 57 E 10 17 29.65 1004 10 16.09344 0 0
5:35 pm 17:35 Sunny 83 28.3 67 19.4 59 59 E 10 17 29.65 1004 10 16.09344 0 0
5:55 pm 17:55 Sunny 82 27.9 67 19.7 61 61 E 8 13 29.65 1004 10 16.09344 0 0
6:15 pm 18:15 Sunny 80 26.8 67 19.4 64 64 E 9 15 29.65 1004 10 16.09344 0 0
6:35 pm 18:35 Sunny 80 26.5 68 20 68 68 E 7 11 29.65 1004 10 16.09344 0 0
6:55 pm 18:55 Sunny 79 26.1 68 20 69 69 E 8 13 29.65 1004 10 16.09344 0 0
7:15 pm 19:15 Sunny 78 25.8 68 20.1 71 71 E 8 13 29.65 1004 10 16.09344 0 0
7:35 pm 19:35 Sunny 77 25.2 69 20.4 75 75 ENE 7 11 29.65 1004 10 16.09344 0 0
7:55 pm 19:55 Sunny 76 24.3 69 20.8 81 81 ENE 8 13 29.68 1005 10 16.09344 0 0
8:15 pm 20:15 Sunny 75 24 70 21 83 83 ENE 8 13 29.68 1005 10 16.09344 0 0
8:35 pm 20:35 Sunny 74 23.5 69 20.8 85 85 E 9 15 29.68 1005 10 16.09344 0 0
8:55 pm 20:55 Clear 74 23.6 69 20.5 83 83 E 10 17 29.68 1005 10 16.09344 0 0
9:15 pm 21:15 Clear 74 23.2 68 20.1 83 83 E 10 17 29.68 1005 10 16.09344 0 0
9:35 pm 21:35 Clear 73 23 68 20 83 83 E 10 17 29.71 1006 10 16.09344 0 0
9:55 pm 21:55 Clear 73 22.6 68 20 85 85 E 9 15 29.71 1006 10 16.09344 0 0
10:15 pm 22:15 Clear 72 22.2 67 19.7 86 86 E 10 17 29.71 1006 10 16.09344 0 0
10:35 pm 22:35 Clear 72 22.3 67 19.7 85 85 E 10 17 29.71 1006 10 16.09344 0 0
10:55 pm 22:55 Partly Cloudy 72 22.2 67 19.6 85 85 E 8 13 29.71 1006 10 16.09344 0 0
11:15 pm 23:15 Partly Cloudy 72 22.2 67 19.6 85 85 E 10 17 29.71 1006 10 16.09344 0 0
11:35 pm 23:35 Clear 71 21.6 67 19.5 88 88 E 10 17 29.71 1006 10 16.09344 0 0
11:55 pm 23:55 Clear 71 21.5 67 19.6 89 89 E 12 19 29.71 1006 10 16.09344 0 0

Powered by AerisWeather